Home > Weather > Bad Hersfeld > Past weeks

Flag for Germany Weather for the Past 2 Weeks in Bad Hersfeld, Hesse, Germany

Now
30 °F

Passing clouds.


Feels Like: 27 °F
Forecast: 27 / 41 °F
Wind: 3 mph from Northwest

Location: Fritzlar Airport

Current Time: Feb 12, 2016 at 11:59:42 PM

Latest Report: Feb 12, 2016 at 10:20 PM


Visibility: N/A

Pressure: 29.45 "Hg

Humidity: 86%

Dew point: 27 °F

Location of Bad HersfeldLocation

Historic Weather in Bad Hersfeld — Graph

°F

Bad Hersfeld Temperature Yesterday

Maximum temperature yesterday: 41 °F (at 11:20 AM)
Minimum temperature yesterday: 30 °F (at 11:20 PM)
Average temperature yesterday: 37 °F

High & Low Weather Summary for the Past Weeks

 TemperatureHumidityPressure
High54 °F (Feb 1, 10:20 AM)100% (Feb 1, 5:20 AM)30.30 "Hg (Feb 1, 5:20 AM)
Low28 °F (Feb 12, 1:20 AM)53% (Feb 3, 3:20 PM)28.88 "Hg (Feb 9, 6:20 PM)
Average42 °F82%29.81 "Hg
* Reported Jan 28 10:20 PM — Feb 12 10:20 PM, Bad Hersfeld, Weather by CustomWeather, © 2016

Note: Actual official high and low records may vary slightly from our data, if they occured in-between our weather recording intervals... More about our weather records

Advertising

Bad Hersfeld Weather History for the Previous 24 Hours

 ConditionsComfort  
Time TempWeatherWind HumidityBarometerVisibility
10:20 PM
Fri, Feb 12
30 °FPassing clouds.3 mph86%29.45 "HgN/A
9:20 PM30 °FPassing clouds.2 mph93%29.45 "HgN/A
8:20 PM32 °FPassing clouds.1 mph87%29.45 "HgN/A
7:20 PM36 °FPartly cloudy.3 mph75%29.45 "HgN/A
6:20 PM37 °FPartly cloudy.6 mph70%29.45 "HgN/A
5:20 PM41 °FPartly sunny.3 mph66%29.47 "HgN/A
4:20 PM41 °FPartly sunny.5 mph66%29.47 "HgN/A
3:20 PM41 °FPartly sunny.3 mph66%29.50 "HgN/A
2:20 PM41 °FScattered clouds.1 mph66%29.50 "HgN/A
1:20 PM39 °FScattered clouds.5 mph70%29.53 "HgN/A
12:20 PM41 °FScattered clouds.7 mph66%29.56 "HgN/A
11:20 AM37 °FScattered clouds.5 mph81%29.59 "HgN/A
10:20 AM37 °FPartly sunny.7 mph81%29.62 "HgN/A
9:20 AM36 °FBroken clouds.5 mph87%29.62 "Hg5 mi
8:20 AM30 °FFog.2 mph100%29.62 "Hg5 mi
8:00 AM32 °FFog.2 mph93%29.62 "Hg5 mi
7:20 AM32 °FFog.2 mph93%29.62 "Hg5 mi
7:00 AM32 °FFog.3 mph93%29.65 "Hg5 mi
6:20 AM32 °FFog.2 mph100%29.65 "Hg5 mi
5:20 AM30 °FPassing clouds.No wind100%29.65 "Hg6 mi
4:20 AM32 °FPartly cloudy.No wind93%29.65 "Hg5 mi
4:00 AM32 °FLight freezing rain. Partly cloudy.2 mph93%29.65 "Hg5 mi
3:20 AM30 °FPartly cloudy.No wind100%29.65 "Hg5 mi
2:20 AM30 °FPassing clouds.1 mph93%29.68 "Hg5 mi
1:20 AM28 °FFog.2 mph100%29.68 "Hg5 mi
12:20 AM30 °FPassing clouds.1 mph93%29.68 "HgN/A
11:20 PM
Thu, Feb 11
30 °FPassing clouds.1 mph93%29.68 "HgN/A
Weather by CustomWeather, © 2016

See weather overviewHow to use our weather pages